Weather History for KAFK - March, 2013

Change the Weather History Date:

Tuesday, March 12, 2013

  Actual Average (WUND) Record (WUND)
Temperature  
Mean Temperature 30 °F -  
Max Temperature 34 °F - - (-1)
Min Temperature 25 °F - - (-1)
Degree Days  
Heating Degree Days 36    
Moisture  
Dew Point 22 °F    
Average Humidity 71    
Maximum Humidity 86    
Minimum Humidity 63    
Precipitation  
Precipitation 0.00 in - - ()
Sea Level Pressure  
Sea Level Pressure 30.17 in    
Wind  
Wind Speed 13 mph (NW)    
Max Wind Speed 28 mph    
Max Gust Speed 36 mph    
Visibility 10 miles    
Events      
Averages and records for this station are not official NWS values.
T = Trace of Precipitation, MM = Missing Value Source: NWS Daily Summary

Daily Weather History Graph

Daily Weather History Graph

Search for Another Location

Airport or City:

Trip Planner

Search our weather history database for the weather conditions in past years. The results will help you decide how hot, cold, wet, or windy it might be!

Date:

Astronomy

Mar. 12, 2013 Rise Set
Actual Time 7:39 AM CDT 7:27 PM CDT
Civil Twilight 7:12 AM CDT 7:54 PM CDT
Nautical Twilight 6:40 AM CDT 8:26 PM CDT
Astronomical Twilight 6:08 AM CDT 8:58 PM CDT
Moon 7:46 AM CDT (3/12) 8:44 PM CDT (3/12)
Length of Visible Light 12h 42m
Length of Day
11h 47m
New Moon, 1% of the Moon is Illuminated
Mar 12
New Moon
Mar 19
First Quarter
Mar 27
Full
Apr 2
Last Quarter
Apr 10
New

Hourly Weather History & Observations

Time (CDT) Temp. Windchill Dew Point Humidity Pressure Visibility Wind Dir Wind Speed Gust Speed Precip Events Conditions
12:15 AM 28.0 °F 18.1 °F 18.3 °F 67% 30.00 in 10.0 mi WNW 11.5 mph - N/A   Clear
12:35 AM 29.1 °F 17.9 °F 20.5 °F 70% 30.00 in 10.0 mi NW 15.0 mph - N/A   Clear
12:55 AM 28.4 °F 18.0 °F 21.0 °F 74% 30.00 in 10.0 mi NW 12.7 mph - N/A   Clear
1:15 AM 29.3 °F 20.8 °F 21.9 °F 74% 30.01 in 10.0 mi NW 9.2 mph - N/A   Clear
1:35 AM 27.7 °F 18.8 °F 21.4 °F 77% 30.03 in 10.0 mi West 9.2 mph - N/A   Clear
1:55 AM 28.0 °F 18.6 °F 21.7 °F 77% 30.02 in 10.0 mi NW 10.4 mph - N/A   Clear
2:15 AM 27.1 °F - 21.2 °F 78% 30.03 in 10.0 mi Calm Calm - N/A   Clear
2:35 AM 26.6 °F 19.1 °F 21.2 °F 80% 30.04 in 10.0 mi WNW 6.9 mph - N/A   Clear
2:55 AM 26.6 °F 17.5 °F 21.6 °F 81% 30.05 in 10.0 mi WNW 9.2 mph - N/A   Clear
3:15 AM 26.1 °F 17.6 °F 21.2 °F 82% 30.04 in 10.0 mi NW 8.1 mph - N/A   Clear
3:35 AM 25.7 °F 21.5 °F 21.0 °F 82% 30.04 in 10.0 mi NW 3.5 mph - N/A   Clear
3:55 AM 25.7 °F - 21.2 °F 83% 30.05 in 10.0 mi Calm Calm - N/A   Clear
4:15 AM 26.4 °F - 21.6 °F 82% 30.04 in 10.0 mi Calm Calm - N/A   Clear
4:35 AM 26.8 °F - 21.9 °F 82% 30.05 in 10.0 mi Calm Calm - N/A   Clear
4:55 AM 26.6 °F - 21.6 °F 81% 30.05 in 10.0 mi Calm Calm - N/A   Clear
5:15 AM 25.9 °F - 21.2 °F 82% 30.05 in 10.0 mi Calm Calm - N/A   Clear
5:35 AM 25.5 °F 16.2 °F 21.2 °F 84% 30.05 in 10.0 mi West 9.2 mph - N/A   Clear
5:55 AM 26.4 °F 16.0 °F 21.7 °F 82% 30.06 in 10.0 mi West 11.5 mph - N/A   Clear
6:15 AM 26.2 °F 15.8 °F 21.6 °F 82% 30.07 in 10.0 mi WSW 11.5 mph - N/A   Clear
6:35 AM 25.2 °F 13.9 °F 21.4 °F 86% 30.07 in 10.0 mi West 12.7 mph - N/A   Clear
6:55 AM 26.6 °F 15.7 °F 21.7 °F 82% 30.07 in 10.0 mi West 12.7 mph - N/A   Clear
7:15 AM 26.4 °F 15.0 °F 21.4 °F 81% 30.08 in 10.0 mi West 13.8 mph - N/A   Clear
7:35 AM 27.5 °F 16.8 °F 21.4 °F 78% 30.09 in 10.0 mi West 12.7 mph - N/A   Clear
7:55 AM 28.0 °F 17.0 °F 21.2 °F 76% 30.10 in 10.0 mi West 13.8 mph - N/A   Clear
8:15 AM 28.9 °F 18.2 °F 21.2 °F 73% 30.10 in 10.0 mi WNW 13.8 mph - N/A   Clear
8:55 AM 30.9 °F 19.4 °F 22.1 °F 70% 30.12 in 10.0 mi NW 17.3 mph 20.7 mph N/A   Clear
9:15 AM 32.0 °F 19.2 °F 21.9 °F 66% 30.13 in 10.0 mi NW 23.0 mph 29.9 mph N/A   Clear
9:35 AM 32.2 °F 19.4 °F 21.6 °F 65% 30.14 in 10.0 mi NW 23.0 mph 27.6 mph N/A   Clear
9:55 AM 32.9 °F 19.8 °F 21.7 °F 64% 30.15 in 10.0 mi NW 25.3 mph 29.9 mph N/A   Clear
10:15 AM 33.1 °F 21.2 °F 21.9 °F 64% 30.16 in 10.0 mi NW 20.7 mph 28.8 mph N/A   Clear
10:35 AM 33.6 °F 22.2 °F 22.1 °F 63% 30.16 in 10.0 mi NW 19.6 mph 32.2 mph N/A   Mostly Cloudy
10:55 AM 33.6 °F 22.2 °F 22.3 °F 63% 30.16 in 10.0 mi NW 19.6 mph 26.5 mph N/A   Mostly Cloudy
11:15 AM 33.8 °F 21.9 °F 22.5 °F 63% 30.17 in 10.0 mi NW 21.9 mph 28.8 mph N/A   Clear
11:55 AM 34.0 °F 21.5 °F 22.6 °F 63% 30.19 in 10.0 mi NW 24.2 mph 35.7 mph N/A   Scattered Clouds
12:15 PM 34.2 °F 22.6 °F 23.2 °F 64% 30.19 in 10.0 mi NW 20.7 mph 29.9 mph N/A   Clear
12:35 PM 34.3 °F 21.3 °F 23.4 °F 64% 30.20 in 10.0 mi NW 27.6 mph 33.4 mph N/A   Scattered Clouds
12:55 PM 34.7 °F 23.1 °F 23.9 °F 65% 30.21 in 10.0 mi NW 21.9 mph 31.1 mph N/A   Mostly Cloudy
1:15 PM 34.7 °F 23.4 °F 23.5 °F 64% 30.21 in 10.0 mi NW 20.7 mph 28.8 mph N/A   Mostly Cloudy
1:35 PM 34.3 °F 22.9 °F 23.7 °F 65% 30.22 in 10.0 mi NW 20.7 mph 28.8 mph N/A   Overcast
1:55 PM 34.2 °F 22.3 °F 23.5 °F 65% 30.22 in 10.0 mi NW 21.9 mph 31.1 mph N/A   Overcast
2:15 PM 33.8 °F 21.3 °F 23.0 °F 65% 30.22 in 10.0 mi NW 24.2 mph 32.2 mph N/A   Overcast
2:35 PM 34.3 °F 22.0 °F 23.2 °F 64% 30.22 in 10.0 mi NW 24.2 mph 29.9 mph N/A   Overcast
2:55 PM 34.0 °F 22.7 °F 22.8 °F 64% 30.22 in 10.0 mi NW 19.6 mph 32.2 mph N/A   Overcast
3:15 PM 34.0 °F 22.1 °F 23.7 °F 66% 30.22 in 10.0 mi NW 21.9 mph 28.8 mph N/A   Overcast
3:35 PM 33.8 °F 22.2 °F 23.5 °F 66% 30.22 in 10.0 mi NNW 20.7 mph 27.6 mph N/A   Overcast
3:55 PM 34.0 °F 22.4 °F 23.2 °F 65% 30.23 in 10.0 mi NW 20.7 mph 27.6 mph N/A   Overcast
4:15 PM 33.8 °F 23.2 °F 23.0 °F 65% 30.23 in 10.0 mi NW 17.3 mph 29.9 mph N/A   Overcast
4:35 PM 34.2 °F 23.6 °F 23.2 °F 64% 30.23 in 10.0 mi NNW 17.3 mph - N/A   Overcast
4:55 PM 34.7 °F 24.0 °F 23.5 °F 64% 30.23 in 10.0 mi NW 18.4 mph 21.9 mph N/A   Overcast
5:15 PM 34.7 °F 24.0 °F 23.9 °F 65% 30.23 in 10.0 mi NNW 18.4 mph 24.2 mph N/A   Overcast
5:35 PM 34.5 °F 23.4 °F 24.3 °F 66% 30.24 in 10.0 mi NNW 19.6 mph 27.6 mph N/A   Overcast
5:55 PM 34.2 °F 23.0 °F 23.4 °F 65% 30.25 in 10.0 mi NW 19.6 mph 26.5 mph N/A   Overcast
6:15 PM 33.8 °F 22.5 °F 23.2 °F 65% 30.25 in 10.0 mi NNW 19.6 mph 24.2 mph N/A   Mostly Cloudy
6:35 PM 32.9 °F 21.3 °F 22.8 °F 66% 30.25 in 10.0 mi NNW 19.6 mph 23.0 mph N/A   Overcast
6:55 PM 32.0 °F 21.6 °F 22.5 °F 68% 30.26 in 10.0 mi NNW 15.0 mph - N/A   Overcast
7:15 PM 32.0 °F 22.1 °F 22.6 °F 68% 30.26 in 10.0 mi North 13.8 mph 18.4 mph N/A   Overcast
7:35 PM 31.6 °F 21.2 °F 22.1 °F 68% 30.27 in 10.0 mi North 15.0 mph 18.4 mph N/A   Scattered Clouds
7:55 PM 30.9 °F 20.2 °F 21.2 °F 67% 30.28 in 10.0 mi NNW 15.0 mph 20.7 mph N/A   Clear
8:15 PM 30.7 °F 20.4 °F 21.0 °F 67% 30.28 in 10.0 mi NNW 13.8 mph - N/A   Clear
8:35 PM 30.4 °F 18.7 °F 20.3 °F 66% 30.29 in 10.0 mi North 17.3 mph 21.9 mph N/A   Clear
8:55 PM 30.0 °F 20.0 °F 19.6 °F 65% 30.30 in 10.0 mi NNW 12.7 mph - N/A   Clear
9:15 PM 29.5 °F 21.1 °F 19.4 °F 66% 30.30 in 10.0 mi North 9.2 mph - N/A   Clear
9:35 PM 28.9 °F 19.8 °F 19.4 °F 68% 30.31 in 10.0 mi NNW 10.4 mph 16.1 mph N/A   Clear
9:55 PM 28.0 °F 19.3 °F 19.4 °F 70% 30.31 in 10.0 mi NNW 9.2 mph - N/A   Clear
10:15 PM 28.0 °F 19.3 °F 19.4 °F 70% 30.31 in 10.0 mi NNW 9.2 mph - N/A   Clear
10:35 PM 27.9 °F 22.6 °F 19.6 °F 71% 30.32 in 10.0 mi NNW 4.6 mph - N/A   Clear
10:55 PM 27.0 °F - 19.4 °F 73% 30.32 in 10.0 mi Calm Calm - N/A   Clear
11:15 PM 25.3 °F - 19.4 °F 78% 30.32 in 10.0 mi Calm Calm - N/A   Clear
11:35 PM 26.1 °F 17.6 °F 19.4 °F 76% 30.32 in 10.0 mi NW 8.1 mph - N/A   Clear
11:55 PM 25.7 °F 17.1 °F 19.4 °F 77% 30.33 in 10.0 mi NNW 8.1 mph - N/A   Clear